| time (UTC) | temp F | wind direction | speed knots | gust knots | rain 1hr in | rain 24hr in | rain mn in | humidity % | barometer mb |
| 20260502183245 | 62 | 284 | 4.3 | 6.1 | 0.00 | 0.00 | 0.00 | 37 | 1014.3 |
| 20260502182740 | 61 | 329 | 1.7 | 1.7 | 0.00 | 0.00 | 0.00 | 36 | 1014.4 |
| 20260502182235 | 59 | 290 | 1.7 | 1.7 | 0.00 | 0.00 | 0.00 | 37 | 1014.6 |
| 20260502181732 | 59 | 333 | 2.6 | 4.3 | 0.00 | 0.00 | 0.00 | 37 | 1014.5 |
| 20260502181232 | 60 | 307 | 2.6 | 5.2 | 0.00 | 0.00 | 0.00 | 39 | 1014.6 |
| 20260502180728 | 60 | 328 | 4.3 | 6.1 | 0.00 | 0.00 | 0.00 | 37 | 1014.8 |
| 20260502180226 | 62 | 323 | 5.2 | 7.8 | 0.00 | 0.00 | 0.00 | 38 | 1014.8 |
| 20260502170150 | 59 | 296 | 2.6 | 2.6 | 0.00 | 0.00 | 0.00 | 39 | 1015.5 |
| 20260502164136 | 59 | 265 | 3.5 | 5.2 | 0.00 | 0.00 | 0.00 | 40 | 1015.8 |
| 20260502163632 | 59 | 310 | 0.9 | 0.9 | 0.00 | 0.00 | 0.00 | 40 | 1015.9 |
| 20260502163129 | 57 | 300 | 0.9 | 1.7 | 0.00 | 0.00 | 0.00 | 39 | 1015.8 |
| 20260502162626 | 59 | 285 | 4.3 | 6.1 | 0.00 | 0.00 | 0.00 | 39 | 1016.0 |
| 20260502162123 | 58 | 250 | 1.7 | 2.6 | 0.00 | 0.00 | 0.00 | 40 | 1016.0 |
| 20260502161620 | 59 | 179 | 3.5 | 4.3 | 0.00 | 0.00 | 0.00 | 40 | 1016.3 |
| 20260502161118 | 57 | 270 | 0.0 | 0.0 | 0.00 | 0.00 | 0.00 | 42 | 1016.4 |
| 20260502160615 | 56 | 274 | 1.7 | 2.6 | 0.00 | 0.00 | 0.00 | 43 | 1016.8 |
| 20260502160114 | 56 | 284 | 3.5 | 4.3 | 0.00 | 0.00 | 0.00 | 42 | 1016.8 |
| 20260502152028 | 56 | 321 | 2.6 | 2.6 | 0.00 | 0.00 | 0.00 | 47 | 1016.7 |
| 20260502151525 | 56 | 314 | 0.9 | 1.7 | 0.00 | 0.00 | 0.00 | 46 | 1017.1 |
| 20260502151022 | 55 | 299 | 1.7 | 1.7 | 0.00 | 0.00 | 0.00 | 47 | 1016.8 |
| 20260502150520 | 53 | 296 | 0.9 | 1.7 | 0.00 | 0.00 | 0.00 | 49 | 1016.7 |
| 20260502130405 | 50 | 294 | 0.9 | 0.9 | 0.00 | 0.00 | 0.00 | 52 | 1016.8 |
| 20260502123347 | 49 | 300 | 0.9 | 0.9 | 0.00 | 0.00 | 0.00 | 54 | 1016.7 |
| 20260502122844 | 49 | 320 | 2.6 | 2.6 | 0.00 | 0.00 | 0.00 | 54 | 1016.8 |
| 20260502122340 | 49 | 324 | 1.7 | 1.7 | 0.00 | 0.00 | 0.00 | 53 | 1016.8 |
| 20260502121839 | 49 | 206 | 1.7 | 1.7 | 0.00 | 0.00 | 0.00 | 55 | 1017.1 |
| 20260502121336 | 49 | 296 | 0.9 | 0.9 | 0.00 | 0.00 | 0.00 | 54 | 1016.9 |
| 20260502120833 | 49 | 281 | 2.6 | 2.6 | 0.00 | 0.00 | 0.00 | 55 | 1016.8 |
| 20260502120329 | 49 | 312 | 0.9 | 0.9 | 0.00 | 0.00 | 0.00 | 56 | 1016.5 |
| 20260502115827 | 49 | 301 | 0.0 | 0.0 | 0.00 | 0.00 | 0.00 | 57 | 1016.8 |
| 20260502115324 | 49 | 312 | 0.9 | 0.9 | 0.00 | 0.00 | 0.00 | 56 | 1016.5 |
| 20260502114820 | 49 | 308 | 0.0 | 0.9 | 0.00 | 0.00 | 0.00 | 55 | 1016.7 |
| 20260502114317 | 49 | 299 | 0.9 | 0.9 | 0.00 | 0.00 | 0.00 | 56 | 1016.3 |
| 20260502113814 | 49 | 303 | 0.9 | 1.7 | 0.00 | 0.00 | 0.00 | 55 | 1016.3 |
| 20260502113312 | 49 | 270 | 0.0 | 0.9 | 0.00 | 0.00 | 0.00 | 54 | 1016.3 |
| 20260502112810 | 49 | 281 | 0.9 | 0.9 | 0.00 | 0.00 | 0.00 | 55 | 1016.3 |
| 20260502112307 | 49 | 308 | 0.0 | 0.0 | 0.00 | 0.00 | 0.00 | 54 | 1016.4 |
| 20260502111804 | 49 | 302 | 0.9 | 0.9 | 0.00 | 0.00 | 0.00 | 54 | 1016.2 |
| 20260502111301 | 49 | 300 | 0.0 | 0.0 | 0.00 | 0.00 | 0.00 | 53 | 1016.3 |
| 20260502110759 | 49 | 285 | 2.6 | 2.6 | 0.00 | 0.00 | 0.00 | 53 | 1016.4 |
| 20260502110256 | 49 | 314 | 0.9 | 0.9 | 0.00 | 0.00 | 0.00 | 53 | 1016.3 |
| 20260502105754 | 49 | 307 | 0.0 | 0.0 | 0.00 | 0.00 | 0.00 | 55 | 1016.0 |
| 20260502105250 | 49 | 298 | 0.0 | 0.0 | 0.00 | 0.00 | 0.00 | 54 | 1016.0 |
| 20260502104748 | 49 | 308 | 0.0 | 0.0 | 0.00 | 0.00 | 0.00 | 54 | 1016.2 |
| 20260502104245 | 49 | 283 | 1.7 | 1.7 | 0.00 | 0.00 | 0.00 | 52 | 1016.2 |
| 20260502103743 | 49 | 291 | 1.7 | 1.7 | 0.00 | 0.00 | 0.00 | 51 | 1016.3 |
| 20260502103240 | 49 | 294 | 0.9 | 1.7 | 0.00 | 0.00 | 0.00 | 51 | 1016.3 |
| 20260502102738 | 49 | 281 | 0.0 | 0.9 | 0.00 | 0.00 | 0.00 | 52 | 1016.4 |
| 20260502102233 | 49 | 332 | 1.7 | 2.6 | 0.00 | 0.00 | 0.00 | 52 | 1016.2 |
| 20260502101732 | 50 | 299 | 0.9 | 0.9 | 0.00 | 0.00 | 0.00 | 51 | 1016.0 |
| 20260502101230 | 50 | 344 | 2.6 | 4.3 | 0.00 | 0.00 | 0.00 | 50 | 1016.3 |
| 20260502100727 | 50 | 283 | 1.7 | 2.6 | 0.00 | 0.00 | 0.00 | 50 | 1016.3 |
| 20260502100226 | 50 | 301 | 1.7 | 1.7 | 0.00 | 0.00 | 0.00 | 50 | 1016.4 |
| 20260502091200 | 51 | 314 | 2.6 | 2.6 | 0.00 | 0.00 | 0.00 | 50 | 1016.2 |
| 20260502090657 | 50 | 250 | 1.7 | 1.7 | 0.00 | 0.00 | 0.00 | 53 | 1015.9 |
| 20260502090154 | 50 | 301 | 0.9 | 0.9 | 0.00 | 0.00 | 0.00 | 56 | 1015.9 |
| 20260502071055 | 52 | 304 | 0.9 | 0.9 | 0.00 | 0.00 | 0.00 | 67 | 1015.5 |
| 20260502070553 | 52 | 319 | 2.6 | 2.6 | 0.00 | 0.00 | 0.00 | 66 | 1015.7 |
| 20260502070051 | 52 | 315 | 1.7 | 1.7 | 0.00 | 0.00 | 0.00 | 66 | 1015.9 |
| 20260502065549 | 52 | 297 | 0.9 | 0.9 | 0.00 | 0.00 | 0.00 | 66 | 1015.9 |
| 20260502065047 | 52 | 319 | 3.5 | 4.3 | 0.00 | 0.00 | 0.00 | 66 | 1016.0 |
| 20260502064545 | 52 | 302 | 2.6 | 4.3 | 0.00 | 0.00 | 0.00 | 66 | 1015.7 |
| 20260502064042 | 52 | 293 | 1.7 | 1.7 | 0.00 | 0.00 | 0.00 | 66 | 1015.8 |
| 20260502063539 | 52 | 255 | 0.9 | 0.9 | 0.00 | 0.00 | 0.00 | 66 | 1015.5 |
| 20260502063037 | 53 | 293 | 0.9 | 1.7 | 0.00 | 0.00 | 0.00 | 65 | 1015.7 |
| 20260502062534 | 53 | 316 | 0.9 | 1.7 | 0.00 | 0.00 | 0.00 | 65 | 1015.8 |
| 20260502062032 | 53 | 296 | 2.6 | 2.6 | 0.00 | 0.00 | 0.00 | 64 | 1016.0 |
| 20260502061530 | 53 | 284 | 1.7 | 2.6 | 0.00 | 0.00 | 0.00 | 65 | 1015.9 |
| 20260502061027 | 53 | 298 | 1.7 | 1.7 | 0.00 | 0.00 | 0.00 | 64 | 1015.9 |
| 20260502060522 | 53 | 316 | 1.7 | 2.6 | 0.00 | 0.00 | 0.00 | 64 | 1016.2 |
| 20260502060019 | 53 | 314 | 0.9 | 1.7 | 0.00 | 0.00 | 0.00 | 64 | 1015.9 |
| 20260502055516 | 53 | 274 | 0.9 | 1.7 | 0.00 | 0.00 | 0.00 | 63 | 1016.2 |
| 20260502055015 | 53 | 300 | 0.9 | 0.9 | 0.00 | 0.00 | 0.00 | 64 | 1015.8 |
| 20260502054513 | 53 | 279 | 3.5 | 4.3 | 0.00 | 0.00 | 0.00 | 63 | 1015.8 |
| 20260502054010 | 53 | 292 | 0.9 | 0.9 | 0.00 | 0.00 | 0.00 | 63 | 1015.5 |
| 20260502053507 | 53 | 292 | 2.6 | 2.6 | 0.00 | 0.00 | 0.00 | 63 | 1015.7 |
| 20260502053005 | 54 | 298 | 1.7 | 1.7 | 0.00 | 0.00 | 0.00 | 62 | 1015.8 |
| 20260502052503 | 54 | 289 | 3.5 | 4.3 | 0.00 | 0.00 | 0.00 | 62 | 1015.7 |
| 20260502052001 | 54 | 244 | 0.9 | 0.9 | 0.00 | 0.00 | 0.00 | 62 | 1015.9 |
| 20260502051459 | 54 | 329 | 1.7 | 1.7 | 0.00 | 0.00 | 0.00 | 61 | 1015.8 |
| 20260502050955 | 54 | 169 | 2.6 | 4.3 | 0.00 | 0.00 | 0.00 | 61 | 1015.9 |
| 20260502050452 | 54 | 296 | 1.7 | 1.7 | 0.00 | 0.00 | 0.00 | 61 | 1015.7 |
| 20260502045949 | 55 | 340 | 4.3 | 7.8 | 0.00 | 0.00 | 0.00 | 61 | 1015.9 |
| 20260502045446 | 55 | 111 | 1.7 | 2.6 | 0.00 | 0.00 | 0.00 | 61 | 1015.8 |
| 20260502044943 | 55 | 205 | 1.7 | 1.7 | 0.00 | 0.00 | 0.00 | 61 | 1015.8 |
| 20260502044438 | 55 | 324 | 0.9 | 0.9 | 0.00 | 0.00 | 0.00 | 61 | 1015.8 |
| 20260502043936 | 55 | 174 | 1.7 | 2.6 | 0.00 | 0.00 | 0.00 | 62 | 1015.7 |
| 20260502043434 | 55 | 292 | 1.7 | 1.7 | 0.00 | 0.00 | 0.00 | 62 | 1015.7 |
| 20260502042933 | 56 | 315 | 6.1 | 7.0 | 0.00 | 0.00 | 0.00 | 61 | 1015.6 |
| 20260502042430 | 56 | 266 | 0.9 | 1.7 | 0.00 | 0.00 | 0.00 | 62 | 1015.7 |
| 20260502041927 | 56 | 290 | 3.5 | 5.2 | 0.00 | 0.00 | 0.00 | 61 | 1015.6 |
| 20260502041425 | 56 | 323 | 2.6 | 2.6 | 0.00 | 0.00 | 0.00 | 63 | 1015.5 |
| 20260502040922 | 56 | 3 | 0.9 | 1.7 | 0.00 | 0.00 | 0.00 | 62 | 1015.5 |
| 20260502040418 | 57 | 278 | 2.6 | 2.6 | 0.00 | 0.00 | 0.00 | 62 | 1015.4 |
| 20260502035915 | 57 | 291 | 1.7 | 1.7 | 0.00 | 0.00 | 0.00 | 62 | 1015.6 |
| 20260502035411 | 57 | 124 | 1.7 | 1.7 | 0.00 | 0.00 | 0.00 | 62 | 1015.3 |
| 20260502034909 | 57 | 304 | 4.3 | 6.1 | 0.00 | 0.00 | 0.00 | 61 | 1015.6 |
| 20260502034408 | 57 | 303 | 1.7 | 1.7 | 0.00 | 0.00 | 0.00 | 62 | 1015.4 |
| 20260502033906 | 57 | 273 | 3.5 | 5.2 | 0.00 | 0.00 | 0.00 | 62 | 1015.4 |
| 20260502033403 | 57 | 290 | 4.3 | 6.1 | 0.00 | 0.00 | 0.00 | 62 | 1015.3 |
| 20260502032859 | 57 | 313 | 4.3 | 5.2 | 0.00 | 0.00 | 0.00 | 62 | 1015.1 |
| 20260502032355 | 57 | 315 | 2.6 | 4.3 | 0.00 | 0.00 | 0.00 | 62 | 1015.1 |
| 20260502031853 | 58 | 306 | 1.7 | 1.7 | 0.00 | 0.00 | 0.00 | 62 | 1014.9 |
| 20260502031351 | 58 | 314 | 9.6 | 13.9 | 0.00 | 0.00 | 0.00 | 61 | 1014.9 |
| 20260502030849 | 58 | 0 | 1.7 | 2.6 | 0.00 | 0.00 | 0.00 | 61 | 1014.9 |
| 20260502030347 | 58 | 232 | 4.3 | 7.8 | 0.00 | 0.00 | 0.00 | 61 | 1015.0 |
| 20260502025844 | 58 | 281 | 2.6 | 4.3 | 0.00 | 0.00 | 0.00 | 60 | 1014.9 |
| 20260502025342 | 58 | 353 | 5.2 | 7.0 | 0.00 | 0.00 | 0.00 | 60 | 1014.6 |
| 20260502024839 | 59 | 300 | 5.2 | 7.0 | 0.00 | 0.00 | 0.00 | 59 | 1014.9 |
| 20260502024337 | 59 | 299 | 0.9 | 1.7 | 0.00 | 0.00 | 0.00 | 58 | 1014.5 |
| 20260502023835 | 59 | 31 | 2.6 | 4.3 | 0.00 | 0.00 | 0.00 | 58 | 1014.6 |
| 20260502023332 | 60 | 282 | 3.5 | 6.1 | 0.00 | 0.00 | 0.00 | 56 | 1014.4 |
| 20260502022830 | 60 | 301 | 0.0 | 0.0 | 0.00 | 0.00 | 0.00 | 55 | 1014.6 |
| 20260502022326 | 60 | 300 | 2.6 | 5.2 | 0.00 | 0.00 | 0.00 | 55 | 1014.4 |
| 20260502021823 | 60 | 240 | 1.7 | 2.6 | 0.00 | 0.00 | 0.00 | 55 | 1014.4 |
| 20260502021320 | 60 | 358 | 2.6 | 2.6 | 0.00 | 0.00 | 0.00 | 56 | 1014.4 |
| 20260502020817 | 59 | 276 | 0.9 | 1.7 | 0.00 | 0.00 | 0.00 | 60 | 1013.7 |
| 20260502020315 | 59 | 317 | 0.9 | 1.7 | 0.00 | 0.00 | 0.00 | 65 | 1013.7 |
| 20260502015812 | 59 | 294 | 1.7 | 1.7 | 0.00 | 0.00 | 0.00 | 66 | 1013.8 |
| 20260502015309 | 59 | 288 | 0.9 | 0.9 | 0.00 | 0.00 | 0.00 | 67 | 1013.7 |
| 20260502014806 | 59 | 303 | 0.9 | 0.9 | 0.00 | 0.00 | 0.00 | 68 | 1013.6 |
| 20260502014303 | 59 | 307 | 1.7 | 1.7 | 0.00 | 0.00 | 0.00 | 67 | 1013.6 |
| 20260502013759 | 59 | 297 | 0.9 | 0.9 | 0.00 | 0.00 | 0.00 | 66 | 1013.4 |
| 20260502013255 | 59 | 315 | 0.9 | 0.9 | 0.00 | 0.00 | 0.00 | 65 | 1013.5 |
| 20260502012751 | 60 | 326 | 1.7 | 1.7 | 0.00 | 0.00 | 0.00 | 64 | 1013.3 |
| 20260502012249 | 60 | 300 | 0.9 | 1.7 | 0.00 | 0.00 | 0.00 | 64 | 1013.2 |
| 20260502011747 | 60 | 298 | 1.7 | 1.7 | 0.00 | 0.00 | 0.00 | 63 | 1013.3 |
| 20260502011242 | 60 | 291 | 0.0 | 0.9 | 0.00 | 0.00 | 0.00 | 62 | 1013.0 |
| 20260502010740 | 61 | 320 | 2.6 | 2.6 | 0.00 | 0.00 | 0.00 | 61 | 1012.8 |
| 20260502010236 | 61 | 305 | 0.9 | 1.7 | 0.00 | 0.00 | 0.00 | 60 | 1012.8 |
| 20260502005733 | 61 | 289 | 2.6 | 2.6 | 0.00 | 0.00 | 0.00 | 61 | 1012.7 |
| 20260502005231 | 61 | 319 | 0.0 | 0.9 | 0.00 | 0.00 | 0.00 | 61 | 1012.6 |
| 20260502004727 | 61 | 304 | 0.9 | 0.9 | 0.00 | 0.00 | 0.00 | 60 | 1012.4 |
| 20260502004224 | 62 | 326 | 0.0 | 0.0 | 0.00 | 0.00 | 0.00 | 59 | 1012.4 |
| 20260502003722 | 62 | 300 | 0.9 | 0.9 | 0.00 | 0.00 | 0.00 | 58 | 1012.5 |
| 20260502003219 | 62 | 303 | 2.6 | 2.6 | 0.00 | 0.00 | 0.00 | 57 | 1012.4 |
| 20260502002714 | 63 | 4 | 1.7 | 2.6 | 0.00 | 0.00 | 0.00 | 56 | 1012.3 |
| 20260502002213 | 63 | 283 | 1.7 | 1.7 | 0.00 | 0.00 | 0.00 | 56 | 1012.0 |
| 20260502001709 | 63 | 266 | 1.7 | 2.6 | 0.00 | 0.00 | 0.00 | 56 | 1012.1 |
| 20260502001208 | 63 | 316 | 0.0 | 0.9 | 0.00 | 0.00 | 0.00 | 57 | 1011.9 |
| 20260502000704 | 64 | 290 | 1.7 | 1.7 | 0.00 | 0.00 | 0.00 | 54 | 1011.9 |
| 20260502000204 | 64 | 299 | 0.9 | 1.7 | 0.00 | 0.00 | 0.00 | 53 | 1011.8 |
| 20260501235658 | 64 | 291 | 0.9 | 0.9 | 0.00 | 0.00 | 0.00 | 53 | 1011.6 |
| 20260501235154 | 65 | 304 | 0.0 | 0.9 | 0.00 | 0.00 | 0.00 | 54 | 1011.5 |
| 20260501234650 | 65 | 314 | 0.0 | 0.0 | 0.00 | 0.00 | 0.00 | 54 | 1011.5 |
| 20260501234147 | 65 | 305 | 0.0 | 0.9 | 0.00 | 0.00 | 0.00 | 55 | 1011.4 |
| 20260501233645 | 66 | 314 | 0.0 | 0.0 | 0.00 | 0.00 | 0.00 | 54 | 1011.3 |
| 20260501233142 | 66 | 314 | 0.0 | 0.0 | 0.00 | 0.00 | 0.00 | 53 | 1011.2 |
| 20260501232638 | 66 | 315 | 0.0 | 0.0 | 0.00 | 0.00 | 0.00 | 49 | 1011.2 |
| 20260501232136 | 67 | 261 | 0.9 | 0.9 | 0.00 | 0.00 | 0.00 | 49 | 1011.3 |
| 20260501231633 | 68 | 201 | 2.6 | 2.6 | 0.00 | 0.00 | 0.00 | 47 | 1011.3 |
| 20260501231131 | 68 | 163 | 5.2 | 7.0 | 0.00 | 0.00 | 0.00 | 44 | 1011.2 |
| 20260501230630 | 68 | 310 | 4.3 | 7.0 | 0.00 | 0.00 | 0.00 | 43 | 1011.5 |
| 20260501230128 | 68 | 318 | 0.9 | 0.9 | 0.00 | 0.00 | 0.00 | 44 | 1011.3 |
| 20260501225625 | 68 | 275 | 1.7 | 1.7 | 0.00 | 0.00 | 0.00 | 46 | 1010.9 |
| 20260501225121 | 68 | 241 | 2.6 | 2.6 | 0.00 | 0.00 | 0.00 | 44 | 1011.2 |
| 20260501224618 | 68 | 143 | 2.6 | 4.3 | 0.00 | 0.00 | 0.00 | 45 | 1011.2 |
| 20260501224115 | 68 | 148 | 3.5 | 5.2 | 0.00 | 0.00 | 0.00 | 46 | 1011.3 |
| 20260501223612 | 69 | 168 | 2.6 | 4.3 | 0.00 | 0.00 | 0.00 | 45 | 1011.3 |
| 20260501223108 | 69 | 182 | 4.3 | 5.2 | 0.00 | 0.00 | 0.00 | 45 | 1011.2 |
| 20260501222604 | 69 | 148 | 3.5 | 4.3 | 0.00 | 0.00 | 0.00 | 45 | 1011.3 |
| 20260501222101 | 69 | 152 | 4.3 | 5.2 | 0.00 | 0.00 | 0.00 | 45 | 1011.3 |
| 20260501221558 | 68 | 179 | 3.5 | 4.3 | 0.00 | 0.00 | 0.00 | 46 | 1011.3 |
| 20260501221055 | 68 | 151 | 4.3 | 7.8 | 0.00 | 0.00 | 0.00 | 46 | 1011.4 |
| 20260501220553 | 68 | 191 | 2.6 | 4.3 | 0.00 | 0.00 | 0.00 | 46 | 1011.5 |
| 20260501220050 | 68 | 232 | 3.5 | 4.3 | 0.00 | 0.00 | 0.00 | 47 | 1011.5 |
| 20260501215546 | 67 | 177 | 3.5 | 4.3 | 0.00 | 0.00 | 0.00 | 46 | 1011.4 |
| 20260501215041 | 67 | 189 | 3.5 | 4.3 | 0.00 | 0.00 | 0.00 | 46 | 1011.5 |
| 20260501214537 | 68 | 115 | 4.3 | 7.0 | 0.00 | 0.00 | 0.00 | 46 | 1011.7 |
| 20260501214033 | 67 | 265 | 1.7 | 1.7 | 0.00 | 0.00 | 0.00 | 47 | 1011.7 |
| 20260501213530 | 67 | 140 | 2.6 | 4.3 | 0.00 | 0.00 | 0.00 | 47 | 1011.6 |
| 20260501213026 | 67 | 201 | 4.3 | 5.2 | 0.00 | 0.00 | 0.00 | 46 | 1011.6 |
| 20260501212522 | 68 | 209 | 2.6 | 2.6 | 0.00 | 0.00 | 0.00 | 45 | 1011.8 |
| 20260501212020 | 68 | 186 | 5.2 | 7.0 | 0.00 | 0.00 | 0.00 | 45 | 1011.7 |
| 20260501211516 | 67 | 179 | 5.2 | 6.1 | 0.00 | 0.00 | 0.00 | 46 | 1011.9 |
| 20260501211015 | 67 | 163 | 2.6 | 4.3 | 0.00 | 0.00 | 0.00 | 46 | 1011.8 |
| 20260501210510 | 68 | 208 | 4.3 | 5.2 | 0.00 | 0.00 | 0.00 | 46 | 1011.8 |
| 20260501210007 | 67 | 181 | 2.6 | 6.1 | 0.00 | 0.00 | 0.00 | 45 | 1012.0 |
| 20260501205504 | 66 | 271 | 2.6 | 4.3 | 0.00 | 0.00 | 0.00 | 46 | 1012.0 |
| 20260501205002 | 67 | 160 | 4.3 | 5.2 | 0.00 | 0.00 | 0.00 | 46 | 1012.0 |
| 20260501204457 | 67 | 180 | 3.5 | 5.2 | 0.00 | 0.00 | 0.00 | 46 | 1012.0 |
| 20260501203954 | 67 | 235 | 4.3 | 6.1 | 0.00 | 0.00 | 0.00 | 45 | 1012.0 |
| 20260501203450 | 67 | 142 | 4.3 | 7.0 | 0.00 | 0.00 | 0.00 | 44 | 1011.9 |
| 20260501202948 | 67 | 138 | 2.6 | 2.6 | 0.00 | 0.00 | 0.00 | 44 | 1012.3 |
| 20260501202444 | 67 | 219 | 2.6 | 4.3 | 0.00 | 0.00 | 0.00 | 45 | 1012.5 |
| 20260501201941 | 68 | 222 | 5.2 | 7.0 | 0.00 | 0.00 | 0.00 | 43 | 1012.4 |
| 20260501201438 | 68 | 299 | 0.9 | 1.7 | 0.00 | 0.00 | 0.00 | 42 | 1012.6 |
| 20260501200935 | 69 | 190 | 0.9 | 1.7 | 0.00 | 0.00 | 0.00 | 37 | 1012.5 |
| 20260501200432 | 69 | 157 | 4.3 | 5.2 | 0.00 | 0.00 | 0.00 | 36 | 1012.7 |
| 20260501195930 | 70 | 290 | 2.6 | 4.3 | 0.00 | 0.00 | 0.00 | 37 | 1012.6 |
| 20260501195426 | 69 | 92 | 1.7 | 1.7 | 0.00 | 0.00 | 0.00 | 37 | 1012.7 |
| 20260501194921 | 69 | 296 | 0.9 | 0.9 | 0.00 | 0.00 | 0.00 | 40 | 1012.8 |
| 20260501194418 | 70 | 210 | 1.7 | 1.7 | 0.00 | 0.00 | 0.00 | 37 | 1013.0 |
| 20260501193914 | 69 | 266 | 1.7 | 2.6 | 0.00 | 0.00 | 0.00 | 37 | 1013.2 |
| 20260501193412 | 69 | 178 | 3.5 | 4.3 | 0.00 | 0.00 | 0.00 | 41 | 1013.5 |
| 20260501192910 | 69 | 252 | 1.7 | 1.7 | 0.00 | 0.00 | 0.00 | 42 | 1013.4 |
| 20260501192407 | 69 | 270 | 0.9 | 1.7 | 0.00 | 0.00 | 0.00 | 43 | 1013.3 |
| 20260501191904 | 70 | 190 | 5.2 | 6.1 | 0.00 | 0.00 | 0.00 | 40 | 1013.3 |
| 20260501191401 | 70 | 314 | 0.9 | 1.7 | 0.00 | 0.00 | 0.00 | 44 | 1013.9 |
| 20260501190858 | 70 | 262 | 2.6 | 2.6 | 0.00 | 0.00 | 0.00 | 43 | 1014.0 |
| 20260501190354 | 68 | 285 | 1.7 | 1.7 | 0.00 | 0.00 | 0.00 | 45 | 1013.9 |
| 20260501185848 | 68 | 280 | 1.7 | 2.6 | 0.00 | 0.00 | 0.00 | 44 | 1014.1 |
| 20260501185345 | 68 | 202 | 4.3 | 6.1 | 0.00 | 0.00 | 0.00 | 44 | 1014.1 |
| 20260501184841 | 69 | 275 | 0.9 | 0.9 | 0.00 | 0.00 | 0.00 | 47 | 1014.3 |
| 20260501184337 | 68 | 120 | 3.5 | 5.2 | 0.00 | 0.00 | 0.00 | 43 | 1014.4 |
| 20260501183833 | 66 | 291 | 2.6 | 4.3 | 0.00 | 0.00 | 0.00 | 46 | 1014.1 |